Location: Stockholm
(59.3333°N, 18.0500°E)
Time: 03:15:06
(UTC+02:00)

Lacrosse 5 rocket - Pass Details

Date: 01 March 2019
Orbit: 459 x 639 km, 57.0° (Epoch: 19 October)

Event Time Altitude Azimuth Distance (km) Brightness Sun altitude
Rises 19:05:10 0° 258° (WSW) 2,577 6.1 -14.7°
Reaches altitude 10° 19:07:18 10° 255° (WSW) 1,721 4.9 -15.0°
Maximum altitude 19:11:07 62° 175° (S) 599 1.4 -15.4°
Enters shadow 19:12:53 31° 105° (ESE) 965 2.0 -15.7°
